Home   Weather   Portland   Past weeks
Flag for USA

Past Weather in Portland, Maine, USA — Yesterday and Last 2 Weeks

Now
34 °F

Clear.


Feels Like: 29 °F
Forecast: 42 / 36 °F
Wind: 6 mph from Southwest

Location: Portland - Portland International Jetport

Current Time: Mar 21, 2019 at 4:40:38 am

Latest Report: Mar 21, 2019 at 3:51 am


Visibility: 10 mi

Pressure: 30.25 "Hg

Humidity: 67%

Dew Point: 24 °F

Location of PortlandLocation

Past Weather in Portland — Graph

°F

Portland Temperature Yesterday

Maximum temperature yesterday: 42 °F (at 2:51 pm)
Minimum temperature yesterday: 19 °F (at 6:51 am)
Average temperature yesterday: 33 °F

High & Low Weather Summary for the Past Weeks

 TemperatureHumidityPressure
High53 °F (Mar 15, 3:13 pm)100% (Mar 10, 4:51 pm)30.50 "Hg (Mar 10, 4:51 pm)
Low3 °F (Mar 7, 5:51 am)23% (Mar 9, 11:51 am)29.56 "Hg (Mar 15, 11:58 pm)
Average32 °F64%30.10 "Hg
* Reported Mar 6 1:51 am — Mar 21 2:51 am, Portland. Weather by CustomWeather, © 2019

Note: Actual official high and low records may vary slightly from our data, if they occured in-between our weather recording intervals... More about our weather records

Advertising

Portland Weather History for the Previous 24 Hours

Scroll right to see more
 ConditionsComfort  
Time TempWeatherWind HumidityBarometerVisibility
2:51 am
Thu, Mar 21
30 °FClear.3 mph89%30.27 "Hg10 mi
1:51 am31 °FClear.No wind89%30.27 "Hg10 mi
12:51 am36 °FClear.No wind75%30.27 "Hg10 mi
11:51 pm
Wed, Mar 20
37 °FClear.5 mph79%30.27 "Hg10 mi
10:51 pm38 °FClear.7 mph79%30.27 "Hg10 mi
9:51 pm38 °FClear.8 mph79%30.28 "Hg10 mi
8:51 pm38 °FClear.7 mph76%30.29 "Hg10 mi
7:51 pm37 °FClear.6 mph76%30.29 "Hg10 mi
6:51 pm38 °FSunny.7 mph70%30.29 "Hg10 mi
5:51 pm40 °FSunny.10 mph60%30.29 "Hg10 mi
4:51 pm41 °FSunny.12 mph51%30.29 "Hg10 mi
3:51 pm41 °FSunny.16 mph49%30.30 "Hg10 mi
2:51 pm42 °FScattered clouds.14 mph53%30.32 "Hg10 mi
1:51 pm41 °FScattered clouds.13 mph47%30.34 "Hg10 mi
12:51 pm41 °FPassing clouds.10 mph47%30.37 "Hg10 mi
11:51 am40 °FPassing clouds.8 mph45%30.39 "Hg10 mi
10:51 am38 °FPassing clouds.8 mph43%30.41 "Hg10 mi
9:51 am36 °FSunny.8 mph44%30.42 "Hg10 mi
8:51 am31 °FSunny.No wind52%30.42 "Hg10 mi
7:51 am24 °FSunny.No wind65%30.42 "Hg10 mi
6:51 am19 °FSunny.3 mph71%30.42 "Hg10 mi
5:51 am20 °FClear.No wind71%30.40 "Hg10 mi
4:51 am20 °FClear.No wind74%30.40 "Hg10 mi
Weather by CustomWeather, © 2019

See weather overview